Kimball, NE

3:45 AM MDT on March 27, 2017 (GMT -0600)
Kimball Municipal-Arraj

Weather History for KIBM - November, 2012

Change the Weather History Date:

Thursday, November 8, 2012

  Actual Average (KSNY) Record (KSNY)
Temperature  
Mean Temperature 44 °F -  
Max Temperature 55 °F 52 °F 81 °F (1999)
Min Temperature 32 °F 26 °F 9 °F (1956)
Degree Days  
Heating Degree Days 22    
Moisture  
Dew Point 27 °F    
Average Humidity 55    
Maximum Humidity 91    
Minimum Humidity 34    
Precipitation  
Precipitation 0.00 in - - ()
Sea Level Pressure  
Sea Level Pressure 29.92 in    
Wind  
Wind Speed 10 mph (NE)    
Max Wind Speed 18 mph    
Max Gust Speed 23 mph    
Visibility 10 miles    
Events      
Averages and records for this station are not official NWS values.
T = Trace of Precipitation, MM = Missing Value Source: NWS Daily Summary

Daily Weather History Graph

Daily Weather History Graph

Search for Another Location

Airport or City:

Trip Planner

Search our weather history database for the weather conditions in past years. The results will help you decide how hot, cold, wet, or windy it might be!

Date:

Astronomy

Nov. 08, 2012 Rise Set
Actual Time 7:34 AM CST 5:41 PM CST
Civil Twilight 7:05 AM CST 6:10 PM CST
Nautical Twilight 6:32 AM CST 6:43 PM CST
Astronomical Twilight 6:00 AM CST 7:16 PM CST
Moon 1:29 AM CST (11/8) 2:26 PM CST (11/8)
Length of Visible Light 11h 05m
Length of Day
10h 06m
Waning Crescent, 32% of the Moon is Illuminated
Nov 8
Waning Crescent
Nov 13
New
Nov 20
First Quarter
Nov 28
Full
Dec 6
Last Quarter

Hourly Weather History & Observations

Time (CST) Temp. Windchill Dew Point Humidity Pressure Visibility Wind Dir Wind Speed Gust Speed Precip Events Conditions
12:15 AM 46.4 °F 41.1 °F 19.4 °F 34% 29.90 in 10.0 mi West 11.5 mph - N/A   Clear
12:35 AM 45.3 °F 40.6 °F 19.2 °F 35% 29.90 in 10.0 mi West 9.2 mph - N/A   Clear
12:55 AM 44.2 °F 37.6 °F 19.8 °F 38% 29.90 in 10.0 mi West 13.8 mph - N/A   Clear
1:15 AM 45.0 °F 39.3 °F 19.8 °F 37% 29.90 in 10.0 mi West 11.5 mph - N/A   Clear
1:35 AM 43.7 °F 37.7 °F 20.3 °F 39% 29.89 in 10.0 mi West 11.5 mph - N/A   Clear
1:55 AM 43.3 °F 37.2 °F 20.7 °F 40% 29.90 in 10.0 mi WSW 11.5 mph - N/A   Clear
2:15 AM 44.4 °F 39.5 °F 20.7 °F 39% 29.89 in 10.0 mi West 9.2 mph - N/A   Clear
2:35 AM 46.4 °F 41.1 °F 20.5 °F 36% 29.90 in 10.0 mi WSW 11.5 mph - N/A   Clear
2:55 AM 46.9 °F - 20.3 °F 35% 29.90 in 10.0 mi West 11.5 mph - N/A   Clear
3:15 AM 44.6 °F 40.7 °F 20.7 °F 39% 29.90 in 10.0 mi West 6.9 mph - N/A   Clear
3:35 AM 43.5 °F 37.5 °F 21.0 °F 41% 29.90 in 10.0 mi West 11.5 mph - N/A   Clear
3:55 AM 43.0 °F 37.2 °F 21.0 °F 42% 29.90 in 10.0 mi West 10.4 mph - N/A   Clear
4:15 AM 37.9 °F 32.7 °F 20.8 °F 50% 29.90 in 10.0 mi WNW 6.9 mph - N/A   Clear
4:35 AM 39.6 °F 34.0 °F 21.2 °F 48% 29.91 in 10.0 mi West 8.1 mph - N/A   Clear
4:55 AM 35.4 °F 29.7 °F 21.2 °F 56% 29.91 in 10.0 mi West 6.9 mph - N/A   Clear
5:15 AM 38.5 °F 32.1 °F 21.6 °F 51% 29.91 in 10.0 mi West 9.2 mph - N/A   Clear
5:35 AM 38.5 °F 31.6 °F 21.2 °F 50% 29.92 in 10.0 mi WNW 10.4 mph - N/A   Clear
5:55 AM 36.9 °F 29.6 °F 21.9 °F 55% 29.93 in 10.0 mi WNW 10.4 mph - N/A   Clear
6:15 AM 37.9 °F 30.0 °F 21.9 °F 53% 29.95 in 10.0 mi WNW 12.7 mph - N/A   Clear
6:35 AM 36.1 °F 28.7 °F 21.9 °F 56% 29.96 in 10.0 mi WNW 10.4 mph - N/A   Clear
6:55 AM 42.3 °F 35.5 °F 22.5 °F 45% 29.97 in 10.0 mi NNW 12.7 mph - N/A   Clear
7:15 AM 41.0 °F 33.5 °F 22.8 °F 48% 29.98 in 10.0 mi North 13.8 mph - N/A   Clear
7:35 AM 38.8 °F 31.2 °F 24.4 °F 56% 30.00 in 10.0 mi North 12.7 mph - N/A   Clear
7:55 AM 38.3 °F 30.1 °F 26.2 °F 62% 29.99 in 10.0 mi North 13.8 mph - N/A   Clear
8:15 AM 39.6 °F 32.5 °F 28.2 °F 64% 30.00 in 10.0 mi North 11.5 mph - N/A   Clear
8:35 AM 40.1 °F 34.7 °F 28.0 °F 62% 30.02 in 10.0 mi North 8.1 mph - N/A   Clear
8:55 AM 40.3 °F 34.4 °F 28.0 °F 62% 30.02 in 10.0 mi North 9.2 mph - N/A   Clear
9:15 AM 42.3 °F 35.9 °F 29.8 °F 61% 30.02 in 10.0 mi North 11.5 mph - N/A   Clear
9:35 AM 44.1 °F 37.4 °F 31.3 °F 61% 30.02 in 10.0 mi NNE 13.8 mph 23.0 mph N/A   Clear
9:55 AM 45.5 °F 38.1 °F 32.0 °F 59% 30.01 in 10.0 mi NNE 18.4 mph - N/A   Clear
10:15 AM 46.2 °F 39.0 °F 31.8 °F 57% 30.00 in 10.0 mi NNE 18.4 mph 21.9 mph N/A   Clear
10:35 AM 46.6 °F - 32.0 °F 57% 30.00 in 10.0 mi NNE 16.1 mph 21.9 mph N/A   Clear
10:55 AM 47.3 °F - 31.6 °F 55% 29.98 in 10.0 mi NNE 15.0 mph 20.7 mph N/A   Clear
11:15 AM 48.0 °F - 31.6 °F 53% 30.00 in 10.0 mi NNE 10.4 mph 17.3 mph N/A   Clear
11:35 AM 48.9 °F - 31.1 °F 50% 30.00 in 10.0 mi NNE 11.5 mph - N/A   Clear
11:55 AM 49.5 °F - 31.3 °F 50% 29.98 in 10.0 mi NE 9.2 mph 17.3 mph N/A   Clear
12:15 PM 50.9 °F - 31.1 °F 47% 29.96 in 10.0 mi NE 13.8 mph - N/A   Clear
12:55 PM 50.9 °F - 30.9 °F 46% 29.95 in 10.0 mi ENE 6.9 mph - N/A   Clear
1:15 PM 52.0 °F - 30.9 °F 45% 29.94 in 10.0 mi NE 6.9 mph - N/A   Clear
1:35 PM 52.2 °F - 30.9 °F 44% 29.94 in 10.0 mi ENE 4.6 mph - N/A   Clear
1:55 PM 53.2 °F - 31.1 °F 43% 29.93 in 10.0 mi East 5.8 mph - N/A   Clear
2:15 PM 54.1 °F - 31.1 °F 41% 29.92 in 10.0 mi East 4.6 mph - N/A   Clear
2:35 PM 54.3 °F - 31.1 °F 41% 29.91 in 10.0 mi East 8.1 mph - N/A   Clear
2:55 PM 54.7 °F - 31.1 °F 41% 29.90 in 10.0 mi East 9.2 mph - N/A   Clear
3:15 PM 55.0 °F - 30.9 °F 40% 29.90 in 10.0 mi East 8.1 mph - N/A   Clear
3:35 PM 54.7 °F - 30.6 °F 40% 29.89 in 10.0 mi East 10.4 mph - N/A   Clear
3:55 PM 54.5 °F - 31.1 °F 41% 29.87 in 10.0 mi East 10.4 mph - N/A   Clear
4:15 PM 54.1 °F - 30.9 °F 41% 29.87 in 10.0 mi East 12.7 mph - N/A   Clear
4:35 PM 53.6 °F - 31.1 °F 42% 29.87 in 10.0 mi East 11.5 mph - N/A   Clear
4:55 PM 52.7 °F - 31.1 °F 44% 29.87 in 10.0 mi ESE 9.2 mph - N/A   Clear
5:15 PM 51.3 °F - 31.1 °F 46% 29.89 in 10.0 mi SE 8.1 mph - N/A   Clear
5:35 PM 47.7 °F - 31.1 °F 53% 29.88 in 10.0 mi SE 9.2 mph - N/A   Clear
5:55 PM 44.8 °F 40.4 °F 31.1 °F 59% 29.87 in 10.0 mi ESE 8.1 mph - N/A   Clear
6:15 PM 41.9 °F 37.5 °F 30.2 °F 63% 29.87 in 10.0 mi East 6.9 mph - N/A   Clear
6:35 PM 38.8 °F 32.6 °F 30.2 °F 71% 29.87 in 10.0 mi ESE 9.2 mph - N/A   Clear
6:55 PM 39.6 °F 34.7 °F 30.6 °F 70% 29.88 in 10.0 mi ESE 6.9 mph - N/A   Clear
7:15 PM 38.7 °F 34.3 °F 30.2 °F 72% 29.88 in 10.0 mi ESE 5.8 mph - N/A   Clear
7:35 PM 37.2 °F 32.6 °F 29.3 °F 73% 29.87 in 10.0 mi SE 5.8 mph - N/A   Clear
7:55 PM 35.8 °F 29.4 °F 29.3 °F 77% 29.87 in 10.0 mi SE 8.1 mph - N/A   Clear
8:15 PM 36.5 °F 31.0 °F 30.0 °F 77% 29.86 in 10.0 mi SE 6.9 mph - N/A   Clear
8:35 PM 36.5 °F 33.9 °F 29.8 °F 77% 29.86 in 10.0 mi SE 3.5 mph - N/A   Clear
8:55 PM 34.7 °F 31.8 °F 29.3 °F 81% 29.86 in 10.0 mi SSE 3.5 mph - N/A   Clear
9:15 PM 37.0 °F - 30.4 °F 77% 29.86 in 10.0 mi Calm Calm - N/A   Clear
9:55 PM 35.4 °F - 30.9 °F 84% 29.86 in 10.0 mi Calm Calm - N/A   Clear
10:15 PM 34.5 °F - 29.3 °F 81% 29.86 in 10.0 mi Calm Calm - N/A   Clear
10:35 PM 33.1 °F - 28.9 °F 85% 29.86 in 10.0 mi Calm Calm - N/A   Clear
10:55 PM 36.0 °F 31.1 °F 31.1 °F 82% 29.86 in 10.0 mi SE 5.8 mph - N/A   Clear
11:15 PM 34.3 °F 29.2 °F 30.6 °F 86% 29.86 in 10.0 mi SE 5.8 mph - N/A   Clear
11:35 PM 32.9 °F 27.5 °F 29.8 °F 88% 29.85 in 10.0 mi SE 5.8 mph - N/A   Clear
11:55 PM 32.2 °F 25.8 °F 29.8 °F 91% 29.83 in 10.0 mi SE 6.9 mph - N/A   Clear